Location: The Saddle
(36.8333°N, 80.3417°W)
Time: 10:56:47
(UTC-05:00)

Transit 2A Rocket - Visible Passes

Search period start: 02 December 2023 00:00
Search period end: 12 December 2023 00:00
Orbit: 593 x 903 km, 66.7° (Epoch: 01 December)

Date Brightness Start Highest point End Pass type
(mag) Time Alt. Az. Time Alt. Az. Time Alt. Az.
02 Dec 7.2 05:53:40 10° NNE 05:55:34 12° NE 05:57:30 10° ENE visible
04 Dec 6.3 06:07:10 10° N 06:11:04 31° ENE 06:15:08 10° ESE visible
05 Dec 7.1 05:24:19 10° N 05:27:13 17° NE 05:30:11 10° E visible
06 Dec 4.6 06:21:50 10° NNW 06:26:15 86° ENE 06:30:56 10° SSE visible
07 Dec 5.7 05:39:20 16° N 05:42:35 43° ENE 05:47:01 10° SE visible
08 Dec 6.6 04:57:21 20° NNE 04:58:48 23° NE 05:02:28 10° ESE visible
08 Dec 5.5 06:37:16 10° NW 06:41:15 32° WSW 06:45:26 10° S visible
09 Dec 7.4 04:15:25 13° ENE 04:15:25 13° ENE 04:16:58 10° ENE visible
09 Dec 4.6 05:55:17 26° NW 05:57:41 66° WSW 06:02:23 10° SSE visible
10 Dec 5.0 05:13:25 54° NNE 05:14:03 61° ENE 05:18:43 10° SE visible
10 Dec 6.6 19:41:19 10° SSW 19:43:07 22° SSW 19:43:07 22° SSW visible
11 Dec 6.6 04:31:37 27° E 04:31:37 27° E 04:34:29 10° ESE visible
11 Dec 5.9 06:11:29 21° W 06:12:36 23° WSW 06:16:19 10° SSW visible
11 Dec 5.6 18:58:04 10° S 19:01:25 33° SE 19:01:25 33° SE visible
